Simultaneous Nadir Overpasses (SNOs) Predictions

Prediction of SNOs between METOP-B and NOAA-19 Satellite Orbit:

Table of predicted SNOs for the next 14.0 days since TLE Epoch: 9/24/2022
Index Date (METOP-B) Time (METOP-B) Lat,Lon (METOP-B) SZA (METOP-B ) Date (NOAA-19) Time (NOAA-19) Lat,Lon (NOAA-19) SZA (NOAA-19 ) Distance(km) Time Diff (sec)
1 09/24/2022 04:13:40 80.89, 151.13 83.09 09/24/2022 04:12:56 80.89, 150.98 83.06 2.62 44
2 09/24/2022 05:04:21 -80.89, -41.56 96.90 09/24/2022 05:03:55 -80.88, -41.42 96.91 2.65 26
3 09/24/2022 05:55:02 80.88, 125.67 83.10 09/24/2022 05:54:55 80.88, 125.77 83.11 1.76 7
4 09/24/2022 06:45:43 -80.88, -67.02 96.89 09/24/2022 06:45:55 -80.88, -67.01 96.89 0.20 12
5 09/24/2022 07:36:24 80.88, 100.20 83.11 09/24/2022 07:36:55 80.88, 100.18 83.13 0.86 31
6 09/24/2022 08:27:05 -80.88, -92.48 96.88 09/24/2022 08:27:55 -80.89, -92.61 96.87 2.34 50
7 09/24/2022 09:17:45 80.89, 75.10 83.17 09/24/2022 09:18:54 80.88, 74.96 83.18 2.62 69
8 10/05/2022 10:31:19 80.89, 56.73 87.53 10/05/2022 10:30:11 80.89, 56.58 87.49 2.64 68
9 10/05/2022 11:22:01 -80.88,-136.18 92.49 10/05/2022 11:21:08 -80.89,-136.05 92.49 2.60 53
10 10/05/2022 12:12:41 80.88, 31.26 87.54 10/05/2022 12:12:10 80.89, 31.36 87.54 1.74 31
11 10/05/2022 13:03:22 -80.89,-161.29 92.44 10/05/2022 13:03:07 -80.89,-161.28 92.44 0.22 15
12 10/05/2022 13:54:02 80.90, 6.16 87.60 10/05/2022 13:54:09 80.89, 6.13 87.59 1.11 7
13 10/05/2022 14:44:44 -80.88, 173.25 92.43 10/05/2022 14:45:07 -80.89, 173.11 92.42 2.40 23
14 10/05/2022 15:35:24 80.89, -19.31 87.61 10/05/2022 15:36:09 80.89, -19.46 87.61 2.68 45



Historial Predications of SNOs between METOP-B and NOAA-19
